TimeCST,TemperatureF,Dew PointF,Humidity,Sea Level PressureIn,VisibilityMPH,Wind Direction,Wind SpeedMPH,Gust SpeedMPH,PrecipitationIn,Events,Conditions,WindDirDegrees,DateUTC
12:52 AM,15.1,9.0,77,30.19,10.0,WSW,10.4,-,N/A,,Clear,250,2013-01-04 06:52:00
1:52 AM,15.1,5.0,64,30.18,10.0,WSW,11.5,19.6,N/A,,Clear,250,2013-01-04 07:52:00
2:52 AM,14.0,6.1,71,30.17,10.0,WSW,11.5,-,N/A,,Clear,240,2013-01-04 08:52:00
3:52 AM,12.9,7.0,77,30.15,10.0,WSW,13.8,-,N/A,,Clear,240,2013-01-04 09:52:00
4:52 AM,12.9,8.1,81,30.13,10.0,WSW,12.7,20.7,N/A,,Clear,250,2013-01-04 10:52:00
5:52 AM,14.0,9.0,80,30.12,10.0,WSW,11.5,19.6,N/A,,Clear,240,2013-01-04 11:52:00
6:52 AM,16.0,10.0,77,30.13,10.0,WSW,11.5,21.9,N/A,,Clear,250,2013-01-04 12:52:00
7:52 AM,16.0,10.9,81,30.15,10.0,WSW,13.8,-,N/A,,Clear,250,2013-01-04 13:52:00
8:52 AM,18.0,10.9,74,30.13,10.0,WSW,17.3,23.0,N/A,,Clear,240,2013-01-04 14:52:00
9:52 AM,21.0,12.9,71,30.13,10.0,West,13.8,21.9,N/A,,Clear,260,2013-01-04 15:52:00
10:52 AM,25.0,14.0,63,30.12,10.0,West,13.8,-,N/A,,Clear,260,2013-01-04 16:52:00
11:52 AM,28.0,15.1,58,30.10,10.0,WSW,15.0,25.3,N/A,,Clear,250,2013-01-04 17:52:00
12:52 PM,28.9,15.1,56,30.09,10.0,West,16.1,25.3,N/A,,Clear,270,2013-01-04 18:52:00
1:52 PM,30.0,16.0,56,30.09,10.0,West,13.8,-,N/A,,Clear,260,2013-01-04 19:52:00
2:52 PM,30.0,16.0,56,30.12,10.0,West,13.8,24.2,N/A,,Clear,260,2013-01-04 20:52:00
3:52 PM,30.0,17.1,59,30.14,10.0,West,13.8,-,N/A,,Clear,270,2013-01-04 21:52:00
4:52 PM,28.9,18.0,64,30.16,10.0,West,8.1,-,N/A,,Clear,260,2013-01-04 22:52:00
5:52 PM,28.0,18.0,66,30.17,10.0,West,13.8,-,N/A,,Clear,260,2013-01-04 23:52:00
6:52 PM,28.0,18.0,66,30.19,10.0,West,13.8,21.9,N/A,,Clear,260,2013-01-05 00:52:00
7:52 PM,28.0,18.0,66,30.19,10.0,West,10.4,-,N/A,,Clear,260,2013-01-05 01:52:00
8:52 PM,27.0,18.0,69,30.19,10.0,West,9.2,-,N/A,,Clear,260,2013-01-05 02:52:00
9:52 PM,27.0,18.0,69,30.20,10.0,West,9.2,-,N/A,,Clear,260,2013-01-05 03:52:00
10:52 PM,25.0,18.0,75,30.21,10.0,WSW,8.1,-,N/A,,Clear,250,2013-01-05 04:52:00
11:52 PM,25.0,18.0,75,30.21,10.0,West,5.8,-,N/A,,Clear,270,2013-01-05 05:52:00